Time,TemperatureF,DewpointF,PressureIn,WindDirection,WindDirectionDegrees,WindSpeedMPH,WindSpeedGustMPH,Humidity,HourlyPrecipIn,Conditions,Clouds,dailyrainin,SoftwareType,DateUTC
2013-05-02 00:01:00,42.8,36.4,30.25,NNW,348,6.0,14.0,78,0.00,,---,0.00,VWS V14.01,2013-05-02 04:01:00,
2013-05-02 00:06:00,42.7,36.0,30.24,North,355,3.0,17.0,77,0.00,,---,0.00,VWS V14.01,2013-05-02 04:06:00,
2013-05-02 00:11:00,42.6,36.2,30.25,North,11,5.0,14.0,78,0.00,,---,0.00,VWS V14.01,2013-05-02 04:11:00,
2013-05-02 00:16:00,42.5,36.1,30.25,North,11,5.0,13.0,78,0.00,,---,0.00,VWS V14.01,2013-05-02 04:16:00,
2013-05-02 00:21:00,42.2,36.2,30.25,North,360,7.0,13.0,79,0.00,,---,0.00,VWS V14.01,2013-05-02 04:21:00,
2013-05-02 00:27:00,42.2,36.2,30.25,North,355,4.0,12.0,79,0.00,,---,0.00,VWS V14.01,2013-05-02 04:27:00,
2013-05-02 00:32:00,42.1,36.1,30.25,North,5,13.0,13.0,79,0.00,,---,0.00,VWS V14.01,2013-05-02 04:32:00,
2013-05-02 00:37:00,42.0,36.0,30.25,North,355,5.0,5.0,79,0.00,,---,0.00,VWS V14.01,2013-05-02 04:37:00,
2013-05-02 00:42:00,42.0,36.0,30.25,NNE,21,4.0,4.0,79,0.00,,---,0.00,VWS V14.01,2013-05-02 04:42:00,
2013-05-02 00:47:00,42.0,36.0,30.25,North,9,8.0,8.0,79,0.00,,---,0.00,VWS V14.01,2013-05-02 04:47:00,
2013-05-02 00:52:00,41.9,36.2,30.25,North,355,11.0,11.0,80,0.00,,---,0.00,VWS V14.01,2013-05-02 04:52:00,
2013-05-02 00:57:00,41.7,36.0,30.25,NNW,344,4.0,4.0,80,0.00,,---,0.00,VWS V14.01,2013-05-02 04:57:00,
2013-05-02 01:02:00,41.6,35.9,30.26,North,11,5.0,9.0,80,0.00,,---,0.00,VWS V14.01,2013-05-02 05:02:00,
2013-05-02 01:07:00,41.4,36.0,30.26,NNW,342,4.0,4.0,81,0.00,,---,0.00,VWS V14.01,2013-05-02 05:07:00,
2013-05-02 01:12:00,41.2,35.8,30.26,North,360,4.0,8.0,81,0.00,,---,0.00,VWS V14.01,2013-05-02 05:12:00,
2013-05-02 01:17:00,41.1,35.7,30.26,North,5,4.0,4.0,81,0.00,,---,0.00,VWS V14.01,2013-05-02 05:17:00,
2013-05-02 01:22:00,41.0,37.1,30.26,NNE,13,3.0,9.0,86,0.00,,---,0.00,VWS V14.01,2013-05-02 05:22:00,
2013-05-02 01:27:00,40.8,35.7,30.26,North,360,4.0,6.0,82,0.00,,---,0.00,VWS V14.01,2013-05-02 05:27:00,
2013-05-02 01:32:00,40.6,35.5,30.26,North,360,4.0,6.0,82,0.00,,---,0.00,VWS V14.01,2013-05-02 05:32:00,
2013-05-02 01:37:00,40.4,35.7,30.26,North,9,4.0,12.0,83,0.00,,---,0.00,VWS V14.01,2013-05-02 05:37:00,
2013-05-02 01:42:00,40.1,35.4,30.26,NNW,333,3.0,6.0,83,0.00,,---,0.00,VWS V14.01,2013-05-02 05:42:00,
2013-05-02 01:47:00,40.0,35.6,30.26,North,11,6.0,6.0,84,0.00,,---,0.00,VWS V14.01,2013-05-02 05:47:00,
2013-05-02 01:52:00,39.8,35.4,30.25,North,5,5.0,11.0,84,0.00,,---,0.00,VWS V14.01,2013-05-02 05:52:00,
2013-05-02 01:57:00,39.8,35.4,30.25,North,360,6.0,11.0,84,0.00,,---,0.00,VWS V14.01,2013-05-02 05:57:00,
2013-05-02 02:02:00,39.7,35.3,30.25,NNE,15,5.0,9.0,84,0.00,,---,0.00,VWS V14.01,2013-05-02 06:02:00,
2013-05-02 02:07:00,39.7,35.3,30.25,North,11,7.0,9.0,84,0.00,,---,0.00,VWS V14.01,2013-05-02 06:07:00,
2013-05-02 02:12:00,39.6,35.2,30.25,North,5,6.0,6.0,84,0.00,,---,0.00,VWS V14.01,2013-05-02 06:12:00,
2013-05-02 02:17:00,39.5,35.1,30.25,North,9,4.0,5.0,84,0.00,,---,0.00,VWS V14.01,2013-05-02 06:17:00,
2013-05-02 02:22:00,39.5,35.1,30.25,North,360,10.0,10.0,84,0.00,,---,0.00,VWS V14.01,2013-05-02 06:22:00,
2013-05-02 02:27:00,39.4,35.0,30.25,North,355,11.0,11.0,84,0.00,,---,0.00,VWS V14.01,2013-05-02 06:27:00,
2013-05-02 02:32:00,39.3,35.2,30.25,NNE,25,2.0,9.0,85,0.00,,---,0.00,VWS V14.01,2013-05-02 06:32:00,
2013-05-02 02:37:00,39.2,35.1,30.25,NNW,337,3.0,5.0,85,0.00,,---,0.00,VWS V14.01,2013-05-02 06:37:00,
2013-05-02 02:42:00,39.1,35.0,30.25,NNE,15,2.0,4.0,85,0.00,,---,0.00,VWS V14.01,2013-05-02 06:42:00,
2013-05-02 02:47:00,39.1,35.0,30.25,North,360,3.0,3.0,85,0.00,,---,0.00,VWS V14.01,2013-05-02 06:47:00,
2013-05-02 02:52:00,39.0,34.9,30.24,NNE,12,5.0,9.0,85,0.00,,---,0.00,VWS V14.01,2013-05-02 06:52:00,
2013-05-02 02:57:00,38.9,34.8,30.24,NNW,347,1.0,5.0,85,0.00,,---,0.00,VWS V14.01,2013-05-02 06:57:00,
2013-05-02 03:02:00,38.8,34.7,30.24,North,360,5.0,5.0,85,0.00,,---,0.00,VWS V14.01,2013-05-02 07:02:00,
2013-05-02 03:08:00,38.8,35.0,30.24,NNW,348,2.0,7.0,86,0.00,,---,0.00,VWS V14.01,2013-05-02 07:08:00,
2013-05-02 03:13:00,38.7,34.9,30.24,North,5,0.0,6.0,86,0.00,,---,0.00,VWS V14.01,2013-05-02 07:13:00,
2013-05-02 03:18:00,38.7,34.9,30.24,North,5,1.0,4.0,86,0.00,,---,0.00,VWS V14.01,2013-05-02 07:18:00,
2013-05-02 03:23:00,38.6,34.8,30.24,North,5,3.0,8.0,86,0.00,,---,0.00,VWS V14.01,2013-05-02 07:23:00,
2013-05-02 03:28:00,38.5,34.7,30.24,West,273,2.0,7.0,86,0.00,,---,0.00,VWS V14.01,2013-05-02 07:28:00,
2013-05-02 03:33:00,38.5,34.7,30.24,North,9,4.0,9.0,86,0.00,,---,0.00,VWS V14.01,2013-05-02 07:33:00,
2013-05-02 03:38:00,38.5,35.0,30.24,North,11,2.0,4.0,87,0.00,,---,0.00,VWS V14.01,2013-05-02 07:38:00,
2013-05-02 03:43:00,38.4,34.6,30.24,North,355,3.0,6.0,86,0.00,,---,0.00,VWS V14.01,2013-05-02 07:43:00,
2013-05-02 03:48:00,38.3,34.8,30.23,North,360,5.0,5.0,87,0.00,,---,0.00,VWS V14.01,2013-05-02 07:48:00,
2013-05-02 03:53:00,38.3,34.8,30.23,NNW,335,3.0,4.0,87,0.00,,---,0.00,VWS V14.01,2013-05-02 07:53:00,
2013-05-02 03:58:00,38.3,34.8,30.23,North,5,2.0,4.0,87,0.00,,---,0.00,VWS V14.01,2013-05-02 07:58:00,
2013-05-02 04:03:00,38.3,34.8,30.23,North,355,6.0,6.0,87,0.00,,---,0.00,VWS V14.01,2013-05-02 08:03:00,
2013-05-02 04:08:00,38.3,35.1,30.23,NNE,14,1.0,4.0,88,0.00,,---,0.00,VWS V14.01,2013-05-02 08:08:00,
2013-05-02 04:13:00,38.3,35.1,30.23,North,11,1.0,4.0,88,0.00,,---,0.00,VWS V14.01,2013-05-02 08:13:00,
2013-05-02 04:18:00,38.2,35.0,30.24,North,360,1.0,5.0,88,0.00,,---,0.00,VWS V14.01,2013-05-02 08:18:00,
2013-05-02 04:23:00,38.2,35.0,30.24,WNW,286,2.0,4.0,88,0.00,,---,0.00,VWS V14.01,2013-05-02 08:23:00,
2013-05-02 04:28:00,38.2,35.0,30.24,North,5,1.0,4.0,88,0.00,,---,0.00,VWS V14.01,2013-05-02 08:28:00,
2013-05-02 04:33:00,38.2,35.0,30.24,NNE,15,0.0,5.0,88,0.00,,---,0.00,VWS V14.01,2013-05-02 08:33:00,
2013-05-02 04:38:00,38.2,35.0,30.24,NNW,340,1.0,4.0,88,0.00,,---,0.00,VWS V14.01,2013-05-02 08:38:00,
2013-05-02 04:43:00,38.2,35.2,30.24,North,5,2.0,7.0,89,0.00,,---,0.00,VWS V14.01,2013-05-02 08:43:00,
2013-05-02 04:48:00,38.2,35.2,30.24,North,355,4.0,6.0,89,0.00,,---,0.00,VWS V14.01,2013-05-02 08:48:00,
2013-05-02 04:53:00,38.1,35.2,30.24,NNE,17,7.0,7.0,89,0.00,,---,0.00,VWS V14.01,2013-05-02 08:53:00,
2013-05-02 04:58:00,38.1,35.2,30.24,North,360,2.0,4.0,89,0.00,,---,0.00,VWS V14.01,2013-05-02 08:58:00,
2013-05-02 05:03:00,38.0,35.0,30.25,NNE,21,2.0,5.0,89,0.00,,---,0.00,VWS V14.01,2013-05-02 09:03:00,
2013-05-02 05:08:00,38.0,35.0,30.24,North,5,2.0,3.0,89,0.00,,---,0.00,VWS V14.01,2013-05-02 09:08:00,
2013-05-02 05:13:00,38.0,35.0,30.24,North,5,0.0,3.0,89,0.00,,---,0.00,VWS V14.01,2013-05-02 09:13:00,
2013-05-02 05:18:00,38.0,35.0,30.24,NNE,17,0.0,3.0,89,0.00,,---,0.00,VWS V14.01,2013-05-02 09:18:00,
2013-05-02 05:23:00,38.0,35.0,30.24,NNE,14,0.0,4.0,89,0.00,,---,0.00,VWS V14.01,2013-05-02 09:23:00,
2013-05-02 05:28:00,38.0,35.0,30.24,NNE,16,0.0,2.0,89,0.00,,---,0.00,VWS V14.01,2013-05-02 09:28:00,
2013-05-02 05:33:00,38.0,35.0,30.24,NNE,13,0.0,3.0,89,0.00,,---,0.00,VWS V14.01,2013-05-02 09:33:00,
2013-05-02 05:38:00,37.9,35.0,30.24,NNE,14,0.0,3.0,89,0.00,,---,0.00,VWS V14.01,2013-05-02 09:38:00,
2013-05-02 05:43:00,37.9,35.2,30.24,NNE,13,2.0,5.0,90,0.00,,---,0.00,VWS V14.01,2013-05-02 09:43:00,
2013-05-02 05:49:00,37.9,35.2,30.24,NNE,14,3.0,4.0,90,0.00,,---,0.00,VWS V14.01,2013-05-02 09:49:00,
2013-05-02 05:54:00,37.9,35.2,30.24,NNE,13,0.0,2.0,90,0.00,,---,0.00,VWS V14.01,2013-05-02 09:54:00,
2013-05-02 05:59:00,37.9,35.2,30.24,North,10,0.0,1.0,90,0.00,,---,0.00,VWS V14.01,2013-05-02 09:59:00,
2013-05-02 06:04:00,37.8,35.1,30.25,North,11,0.0,0.0,90,0.00,,---,0.00,VWS V14.01,2013-05-02 10:04:00,
2013-05-02 06:09:00,37.8,35.1,30.25,North,10,2.0,3.0,90,0.00,,---,0.00,VWS V14.01,2013-05-02 10:09:00,
2013-05-02 06:14:00,37.8,35.1,30.25,North,10,1.0,2.0,90,0.00,,---,0.00,VWS V14.01,2013-05-02 10:14:00,
2013-05-02 06:19:00,37.8,35.1,30.26,NNE,21,0.0,2.0,90,0.00,,---,0.00,VWS V14.01,2013-05-02 10:19:00,
2013-05-02 06:24:00,37.8,35.1,30.25,North,5,0.0,1.0,90,0.00,,---,0.00,VWS V14.01,2013-05-02 10:24:00,
2013-05-02 06:29:00,37.8,35.1,30.25,NNE,12,2.0,5.0,90,0.00,,---,0.00,VWS V14.01,2013-05-02 10:29:00,
2013-05-02 06:34:00,37.8,35.1,30.25,North,351,1.0,3.0,90,0.00,,---,0.00,VWS V14.01,2013-05-02 10:34:00,
2013-05-02 06:39:00,37.9,35.2,30.25,North,360,2.0,5.0,90,0.00,,---,0.00,VWS V14.01,2013-05-02 10:39:00,
2013-05-02 06:44:00,38.0,35.6,30.26,NW,323,2.0,5.0,91,0.00,,---,0.00,VWS V14.01,2013-05-02 10:44:00,
2013-05-02 06:49:00,38.1,35.4,30.26,North,350,1.0,5.0,90,0.00,,---,0.00,VWS V14.01,2013-05-02 10:49:00,
2013-05-02 06:54:00,38.2,35.5,30.26,NNE,13,3.0,3.0,90,0.00,,---,0.00,VWS V14.01,2013-05-02 10:54:00,
2013-05-02 06:59:00,38.3,35.6,30.26,NNE,13,3.0,3.0,90,0.00,,---,0.00,VWS V14.01,2013-05-02 10:59:00,
2013-05-02 07:04:00,38.5,35.8,30.26,North,350,1.0,3.0,90,0.00,,---,0.00,VWS V14.01,2013-05-02 11:04:00,
2013-05-02 07:09:00,38.6,35.9,30.26,NW,322,2.0,5.0,90,0.00,,---,0.00,VWS V14.01,2013-05-02 11:09:00,
2013-05-02 07:14:00,38.7,36.0,30.26,NNE,18,2.0,6.0,90,0.00,,---,0.00,VWS V14.01,2013-05-02 11:14:00,
2013-05-02 07:19:00,38.9,36.2,30.26,NNE,15,2.0,7.0,90,0.00,,---,0.00,VWS V14.01,2013-05-02 11:19:00,
2013-05-02 07:24:00,38.9,36.2,30.26,North,360,3.0,6.0,90,0.00,,---,0.00,VWS V14.01,2013-05-02 11:24:00,
2013-05-02 07:29:00,39.0,36.0,30.26,ENE,69,2.0,7.0,89,0.00,,---,0.00,VWS V14.01,2013-05-02 11:29:00,
2013-05-02 07:34:00,39.2,36.2,30.26,North,11,0.0,7.0,89,0.00,,---,0.00,VWS V14.01,2013-05-02 11:34:00,
2013-05-02 07:39:00,39.3,36.3,30.26,NNE,12,5.0,7.0,89,0.00,,---,0.00,VWS V14.01,2013-05-02 11:39:00,
2013-05-02 07:44:00,39.5,36.5,30.27,North,355,0.0,5.0,89,0.00,,---,0.00,VWS V14.01,2013-05-02 11:44:00,
2013-05-02 07:49:00,39.8,36.5,30.27,North,360,2.0,4.0,88,0.00,,---,0.00,VWS V14.01,2013-05-02 11:49:00,
2013-05-02 07:54:00,40.0,36.7,30.26,North,360,2.0,5.0,88,0.00,,---,0.00,VWS V14.01,2013-05-02 11:54:00,
2013-05-02 07:59:00,40.0,36.7,30.27,North,9,0.0,5.0,88,0.00,,---,0.00,VWS V14.01,2013-05-02 11:59:00,
2013-05-02 08:04:00,40.3,36.8,30.27,North,5,4.0,7.0,87,0.00,,---,0.00,VWS V14.01,2013-05-02 12:04:00,
2013-05-02 08:09:00,40.6,37.0,30.27,NNW,344,1.0,5.0,87,0.00,,---,0.00,VWS V14.01,2013-05-02 12:09:00,
2013-05-02 08:14:00,40.7,37.1,30.27,North,355,0.0,5.0,87,0.00,,---,0.00,VWS V14.01,2013-05-02 12:14:00,
2013-05-02 08:19:00,41.1,37.2,30.28,North,360,0.0,5.0,86,0.00,,---,0.00,VWS V14.01,2013-05-02 12:19:00,
2013-05-02 08:24:00,41.3,37.4,30.28,North,5,1.0,4.0,86,0.00,,---,0.00,VWS V14.01,2013-05-02 12:24:00,
2013-05-02 08:29:00,41.3,37.1,30.28,North,5,2.0,4.0,85,0.00,,---,0.00,VWS V14.01,2013-05-02 12:29:00,
2013-05-02 08:35:00,41.7,37.8,30.28,NNE,32,1.0,4.0,86,0.00,,---,0.00,VWS V14.01,2013-05-02 12:35:00,
2013-05-02 08:40:00,41.9,37.7,30.28,NE,45,0.0,6.0,85,0.00,,---,0.00,VWS V14.01,2013-05-02 12:40:00,
2013-05-02 08:45:00,42.3,37.8,30.28,North,350,0.0,3.0,84,0.00,,---,0.00,VWS V14.01,2013-05-02 12:45:00,
2013-05-02 08:50:00,42.4,37.6,30.28,NNE,14,6.0,6.0,83,0.00,,---,0.00,VWS V14.01,2013-05-02 12:50:00,
2013-05-02 08:55:00,42.5,38.0,30.27,NNW,348,0.0,2.0,84,0.00,,---,0.00,VWS V14.01,2013-05-02 12:55:00,
2013-05-02 09:00:00,43.1,38.6,30.27,NNE,14,3.0,7.0,84,0.00,,---,0.00,VWS V14.01,2013-05-02 13:00:00,
2013-05-02 09:05:00,43.2,38.1,30.28,NNE,14,5.0,5.0,82,0.00,,---,0.00,VWS V14.01,2013-05-02 13:05:00,
2013-05-02 09:10:00,43.2,38.1,30.28,NNE,15,2.0,5.0,82,0.00,,---,0.00,VWS V14.01,2013-05-02 13:10:00,
2013-05-02 09:15:00,43.5,38.4,30.28,NNE,19,6.0,6.0,82,0.00,,---,0.00,VWS V14.01,2013-05-02 13:15:00,
2013-05-02 09:20:00,43.6,38.5,30.28,NNE,16,4.0,6.0,82,0.00,,---,0.00,VWS V14.01,2013-05-02 13:20:00,
2013-05-02 09:25:00,43.6,38.2,30.28,NNW,333,0.0,5.0,81,0.00,,---,0.00,VWS V14.01,2013-05-02 13:25:00,
2013-05-02 09:30:00,43.9,38.5,30.28,West,259,0.0,2.0,81,0.00,,---,0.00,VWS V14.01,2013-05-02 13:30:00,
2013-05-02 09:35:00,44.0,38.2,30.28,NNE,13,2.0,7.0,80,0.00,,---,0.00,VWS V14.01,2013-05-02 13:35:00,
2013-05-02 09:40:00,43.3,37.9,30.27,North,9,2.0,11.0,81,0.00,,---,0.00,VWS V14.01,2013-05-02 13:40:00,
2013-05-02 09:45:00,44.0,38.9,30.27,North,355,2.0,4.0,82,0.00,,---,0.00,VWS V14.01,2013-05-02 13:45:00,
2013-05-02 09:50:00,44.0,37.9,30.27,NNE,13,3.0,9.0,79,0.00,,---,0.00,VWS V14.01,2013-05-02 13:50:00,
2013-05-02 09:55:00,43.9,38.1,30.27,NNE,13,1.0,7.0,80,0.00,,---,0.00,VWS V14.01,2013-05-02 13:55:00,
2013-05-02 10:00:00,44.2,38.8,30.27,NE,38,4.0,6.0,81,0.00,,---,0.00,VWS V14.01,2013-05-02 14:00:00,
2013-05-02 10:05:00,44.2,38.4,30.27,NNE,26,5.0,7.0,80,0.00,,---,0.00,VWS V14.01,2013-05-02 14:05:00,
2013-05-02 10:10:00,44.0,38.2,30.27,NNE,26,3.0,6.0,80,0.00,,---,0.00,VWS V14.01,2013-05-02 14:10:00,
2013-05-02 10:15:00,44.1,38.3,30.27,NNE,25,2.0,5.0,80,0.00,,---,0.00,VWS V14.01,2013-05-02 14:15:00,
2013-05-02 10:20:00,44.2,38.4,30.27,NNE,22,4.0,4.0,80,0.00,,---,0.00,VWS V14.01,2013-05-02 14:20:00,
2013-05-02 10:25:00,44.3,38.5,30.27,NNE,19,2.0,6.0,80,0.00,,---,0.00,VWS V14.01,2013-05-02 14:25:00,
2013-05-02 10:30:00,44.5,38.7,30.27,NNE,20,0.0,4.0,80,0.00,,---,0.00,VWS V14.01,2013-05-02 14:30:00,
2013-05-02 10:35:00,44.9,38.8,30.26,NNE,19,3.0,4.0,79,0.00,,---,0.00,VWS V14.01,2013-05-02 14:35:00,
2013-05-02 10:40:00,45.0,39.2,30.26,NNE,18,0.0,5.0,80,0.00,,---,0.00,VWS V14.01,2013-05-02 14:40:00,
2013-05-02 10:45:00,45.2,39.1,30.26,NNE,32,2.0,3.0,79,0.00,,---,0.00,VWS V14.01,2013-05-02 14:45:00,
2013-05-02 10:50:00,45.6,39.5,30.26,NNE,33,2.0,4.0,79,0.00,,---,0.00,VWS V14.01,2013-05-02 14:50:00,
2013-05-02 10:55:00,46.5,39.7,30.26,ENE,78,2.0,5.0,77,0.00,,---,0.00,VWS V14.01,2013-05-02 14:55:00,
2013-05-02 11:00:00,47.2,39.7,30.26,ENE,63,3.0,5.0,75,0.00,,---,0.00,VWS V14.01,2013-05-02 15:00:00,
2013-05-02 11:05:00,48.2,41.0,30.25,NE,40,3.0,6.0,76,0.00,,---,0.00,VWS V14.01,2013-05-02 15:05:00,
2013-05-02 11:10:00,49.1,41.5,30.25,NNE,32,2.0,4.0,75,0.00,,---,0.00,VWS V14.01,2013-05-02 15:10:00,
2013-05-02 11:15:00,49.4,41.1,30.25,East,82,0.0,5.0,73,0.00,,---,0.00,VWS V14.01,2013-05-02 15:15:00,
2013-05-02 11:20:00,49.6,41.0,30.25,NNE,30,7.0,7.0,72,0.00,,---,0.00,VWS V14.01,2013-05-02 15:20:00,
2013-05-02 11:25:00,49.7,41.4,30.25,NNE,26,3.0,4.0,73,0.00,,---,0.00,VWS V14.01,2013-05-02 15:25:00,
2013-05-02 11:30:00,50.4,41.7,30.25,NE,36,4.0,5.0,72,0.00,,---,0.00,VWS V14.01,2013-05-02 15:30:00,
2013-05-02 11:36:00,50.3,41.3,30.25,North,360,2.0,5.0,71,0.00,,---,0.00,VWS V14.01,2013-05-02 15:36:00,
2013-05-02 11:41:00,50.2,41.5,30.25,NNE,26,0.0,6.0,72,0.00,,---,0.00,VWS V14.01,2013-05-02 15:41:00,
2013-05-02 11:46:00,50.5,41.5,30.25,NE,46,0.0,5.0,71,0.00,,---,0.00,VWS V14.01,2013-05-02 15:46:00,
2013-05-02 11:51:00,50.6,42.3,30.24,NE,38,4.0,5.0,73,0.00,,---,0.00,VWS V14.01,2013-05-02 15:51:00,
2013-05-02 11:56:00,51.2,42.5,30.24,ENE,59,4.0,5.0,72,0.00,,---,0.00,VWS V14.01,2013-05-02 15:56:00,
2013-05-02 12:01:00,51.8,42.3,30.24,NE,55,4.0,6.0,70,0.00,,---,0.00,VWS V14.01,2013-05-02 16:01:00,
2013-05-02 12:06:00,51.9,42.4,30.24,ENE,76,2.0,6.0,70,0.00,,---,0.00,VWS V14.01,2013-05-02 16:06:00,
2013-05-02 12:11:00,52.9,43.8,30.24,ENE,73,0.0,3.0,71,0.00,,---,0.00,VWS V14.01,2013-05-02 16:11:00,
2013-05-02 12:16:00,53.5,43.2,30.24,North,360,2.0,4.0,68,0.00,,---,0.00,VWS V14.01,2013-05-02 16:16:00,
2013-05-02 12:21:00,54.0,44.1,30.23,NNE,21,6.0,6.0,69,0.00,,---,0.00,VWS V14.01,2013-05-02 16:21:00,
2013-05-02 12:26:00,54.2,43.9,30.23,NNE,28,4.0,5.0,68,0.00,,---,0.00,VWS V14.01,2013-05-02 16:26:00,
2013-05-02 12:31:00,54.3,44.7,30.23,North,10,1.0,6.0,70,0.00,,---,0.00,VWS V14.01,2013-05-02 16:31:00,
2013-05-02 12:36:00,54.3,44.7,30.23,North,11,4.0,7.0,70,0.00,,---,0.00,VWS V14.01,2013-05-02 16:36:00,
2013-05-02 12:41:00,54.0,43.7,30.23,North,360,5.0,9.0,68,0.00,,---,0.00,VWS V14.01,2013-05-02 16:41:00,
2013-05-02 12:46:00,53.9,44.3,30.23,North,5,3.0,6.0,70,0.00,,---,0.00,VWS V14.01,2013-05-02 16:46:00,
2013-05-02 12:51:00,54.2,44.6,30.22,NNE,16,2.0,6.0,70,0.00,,---,0.00,VWS V14.01,2013-05-02 16:51:00,
2013-05-02 12:56:00,54.1,44.5,30.22,NNE,15,0.0,9.0,70,0.00,,---,0.00,VWS V14.01,2013-05-02 16:56:00,
2013-05-02 13:01:00,54.4,44.1,30.22,NNE,24,0.0,6.0,68,0.00,,---,0.00,VWS V14.01,2013-05-02 17:01:00,
2013-05-02 13:06:00,54.6,44.7,30.22,North,360,0.0,5.0,69,0.00,,---,0.00,VWS V14.01,2013-05-02 17:06:00,
2013-05-02 13:11:00,54.5,44.5,30.21,NNE,18,6.0,6.0,69,0.00,,---,0.00,VWS V14.01,2013-05-02 17:11:00,
2013-05-02 13:16:00,54.4,44.1,30.21,North,11,4.0,6.0,68,0.00,,---,0.00,VWS V14.01,2013-05-02 17:16:00,
2013-05-02 13:21:00,54.1,43.8,30.21,North,11,3.0,9.0,68,0.00,,---,0.00,VWS V14.01,2013-05-02 17:21:00,
2013-05-02 13:26:00,53.8,43.1,30.20,North,10,4.0,7.0,67,0.00,,---,0.00,VWS V14.01,2013-05-02 17:26:00,
2013-05-02 13:31:00,54.1,43.8,30.20,NNE,13,3.0,9.0,68,0.00,,---,0.00,VWS V14.01,2013-05-02 17:31:00,
2013-05-02 13:36:00,54.7,44.4,30.20,North,9,0.0,9.0,68,0.00,,---,0.00,VWS V14.01,2013-05-02 17:36:00,
2013-05-02 13:41:00,55.2,44.5,30.20,North,349,0.0,6.0,67,0.00,,---,0.00,VWS V14.01,2013-05-02 17:41:00,
2013-05-02 13:46:00,56.1,45.3,30.20,North,10,4.0,6.0,67,0.00,,---,0.00,VWS V14.01,2013-05-02 17:46:00,
2013-05-02 13:51:00,56.6,46.6,30.20,NNW,331,0.0,6.0,69,0.00,,---,0.00,VWS V14.01,2013-05-02 17:51:00,
2013-05-02 13:56:00,57.3,45.7,30.19,NW,326,0.0,5.0,65,0.00,,---,0.00,VWS V14.01,2013-05-02 17:56:00,
2013-05-02 14:01:00,57.8,46.5,30.19,NW,320,0.0,4.0,66,0.00,,---,0.00,VWS V14.01,2013-05-02 18:01:00,
2013-05-02 14:06:00,57.7,46.0,30.19,North,9,0.0,7.0,65,0.00,,---,0.00,VWS V14.01,2013-05-02 18:06:00,
2013-05-02 14:11:00,57.8,45.7,30.19,North,360,3.0,5.0,64,0.00,,---,0.00,VWS V14.01,2013-05-02 18:11:00,
2013-05-02 14:16:00,56.8,46.0,30.19,North,10,3.0,7.0,67,0.00,,---,0.00,VWS V14.01,2013-05-02 18:16:00,
2013-05-02 14:21:00,55.5,44.7,30.19,NNE,21,1.0,6.0,67,0.00,,---,0.00,VWS V14.01,2013-05-02 18:21:00,
2013-05-02 14:26:00,55.1,44.3,30.19,NNE,15,1.0,6.0,67,0.00,,---,0.00,VWS V14.01,2013-05-02 18:26:00,
2013-05-02 14:31:00,54.7,43.6,30.19,North,360,2.0,8.0,66,0.00,,---,0.00,VWS V14.01,2013-05-02 18:31:00,
2013-05-02 14:36:00,53.5,44.0,30.19,North,10,2.0,9.0,70,0.00,,---,0.00,VWS V14.01,2013-05-02 18:36:00,
2013-05-02 14:41:00,52.8,42.9,30.20,NE,40,1.0,6.0,69,0.00,,---,0.00,VWS V14.01,2013-05-02 18:41:00,
2013-05-02 14:46:00,52.7,42.8,30.20,NE,37,1.0,6.0,69,0.00,,---,0.00,VWS V14.01,2013-05-02 18:46:00,
2013-05-02 14:52:00,52.3,42.8,30.20,NNE,18,1.0,6.0,70,0.00,,---,0.00,VWS V14.01,2013-05-02 18:52:00,
2013-05-02 14:57:00,52.3,42.8,30.19,North,355,3.0,9.0,70,0.00,,---,0.00,VWS V14.01,2013-05-02 18:57:00,
2013-05-02 15:02:00,52.1,43.0,30.20,NNW,342,1.0,8.0,71,0.00,,---,0.00,VWS V14.01,2013-05-02 19:02:00,
2013-05-02 15:07:00,52.4,43.7,30.20,NNW,342,0.0,4.0,72,0.00,,---,0.00,VWS V14.01,2013-05-02 19:07:00,
2013-05-02 15:12:00,53.0,44.2,30.20,NNE,19,0.0,6.0,72,0.00,,---,0.00,VWS V14.01,2013-05-02 19:12:00,
2013-05-02 15:17:00,53.9,44.3,30.19,NNW,329,2.0,5.0,70,0.00,,---,0.00,VWS V14.01,2013-05-02 19:17:00,
2013-05-02 15:22:00,53.9,44.0,30.19,NNE,13,4.0,6.0,69,0.00,,---,0.00,VWS V14.01,2013-05-02 19:22:00,
2013-05-02 15:27:00,54.0,45.2,30.19,WNW,294,1.0,10.0,72,0.00,,---,0.00,VWS V14.01,2013-05-02 19:27:00,
2013-05-02 15:32:00,54.1,44.5,30.19,WSW,257,6.0,9.0,70,0.00,,---,0.00,VWS V14.01,2013-05-02 19:32:00,
2013-05-02 15:37:00,53.9,44.0,30.19,NW,306,11.0,11.0,69,0.00,,---,0.00,VWS V14.01,2013-05-02 19:37:00,
2013-05-02 15:42:00,54.1,44.9,30.19,NW,321,1.0,11.0,71,0.00,,---,0.00,VWS V14.01,2013-05-02 19:42:00,
2013-05-02 15:47:00,54.4,45.2,30.19,NNW,340,2.0,9.0,71,0.00,,---,0.00,VWS V14.01,2013-05-02 19:47:00,
2013-05-02 15:52:00,54.0,45.2,30.18,North,360,2.0,10.0,72,0.00,,---,0.00,VWS V14.01,2013-05-02 19:52:00,
2013-05-02 15:57:00,54.0,44.8,30.18,NW,318,1.0,10.0,71,0.00,,---,0.00,VWS V14.01,2013-05-02 19:57:00,
2013-05-02 16:02:00,54.2,45.0,30.18,North,350,0.0,5.0,71,0.00,,---,0.00,VWS V14.01,2013-05-02 20:02:00,
2013-05-02 16:07:00,53.9,44.3,30.18,NNE,15,2.0,15.0,70,0.00,,---,0.00,VWS V14.01,2013-05-02 20:07:00,
2013-05-02 16:12:00,53.2,44.8,30.18,NNW,343,1.0,11.0,73,0.00,,---,0.00,VWS V14.01,2013-05-02 20:12:00,
2013-05-02 16:17:00,53.6,45.5,30.17,North,360,3.0,5.0,74,0.00,,---,0.00,VWS V14.01,2013-05-02 20:17:00,
2013-05-02 16:22:00,53.6,44.4,30.17,NNE,26,2.0,11.0,71,0.00,,---,0.00,VWS V14.01,2013-05-02 20:22:00,
2013-05-02 16:27:00,53.4,44.6,30.17,North,11,2.0,8.0,72,0.00,,---,0.00,VWS V14.01,2013-05-02 20:27:00,
2013-05-02 16:32:00,53.3,44.5,30.17,NNE,26,0.0,0.0,72,0.00,,---,0.00,VWS V14.01,2013-05-02 20:32:00,
2013-05-02 16:37:00,53.9,45.1,30.16,North,11,4.0,5.0,72,0.00,,---,0.00,VWS V14.01,2013-05-02 20:37:00,
2013-05-02 16:42:00,54.0,45.2,30.16,North,360,4.0,4.0,72,0.00,,---,0.00,VWS V14.01,2013-05-02 20:42:00,
2013-05-02 16:47:00,53.9,45.1,30.16,North,5,5.0,6.0,72,0.00,,---,0.00,VWS V14.01,2013-05-02 20:47:00,
2013-05-02 16:52:00,53.9,45.1,30.16,NE,38,6.0,6.0,72,0.00,,---,0.00,VWS V14.01,2013-05-02 20:52:00,
2013-05-02 16:57:00,54.6,45.4,30.15,NW,304,1.0,1.0,71,0.00,,---,0.00,VWS V14.01,2013-05-02 20:57:00,
2013-05-02 17:02:00,54.9,45.7,30.15,East,79,3.0,4.0,71,0.00,,---,0.00,VWS V14.01,2013-05-02 21:02:00,
2013-05-02 17:07:00,55.0,45.8,30.15,NW,325,0.0,2.0,71,0.00,,---,0.00,VWS V14.01,2013-05-02 21:07:00,
2013-05-02 17:12:00,54.8,45.2,30.15,North,355,1.0,1.0,70,0.00,,---,0.00,VWS V14.01,2013-05-02 21:12:00,
2013-05-02 17:17:00,54.6,45.4,30.15,North,360,5.0,5.0,71,0.00,,---,0.00,VWS V14.01,2013-05-02 21:17:00,
2013-05-02 17:22:00,54.5,46.0,30.14,NNE,13,3.0,4.0,73,0.00,,---,0.00,VWS V14.01,2013-05-02 21:22:00,
2013-05-02 17:27:00,54.7,45.5,30.14,NNE,13,3.0,4.0,71,0.00,,---,0.00,VWS V14.01,2013-05-02 21:27:00,
2013-05-02 17:32:00,54.7,44.7,30.14,North,355,3.0,5.0,69,0.00,,---,0.00,VWS V14.01,2013-05-02 21:32:00,
2013-05-02 17:37:00,54.6,44.7,30.14,NNE,26,2.0,2.0,69,0.00,,---,0.00,VWS V14.01,2013-05-02 21:37:00,
2013-05-02 17:42:00,54.1,44.2,30.15,North,9,12.0,15.0,69,0.00,,---,0.00,VWS V14.01,2013-05-02 21:42:00,
2013-05-02 17:47:00,52.8,42.9,30.15,NNE,12,4.0,10.0,69,0.00,,---,0.00,VWS V14.01,2013-05-02 21:47:00,
2013-05-02 17:52:00,52.6,43.1,30.14,NNW,342,3.0,7.0,70,0.00,,---,0.00,VWS V14.01,2013-05-02 21:52:00,
2013-05-02 17:57:00,52.4,42.5,30.15,NNE,29,3.0,5.0,69,0.00,,---,0.00,VWS V14.01,2013-05-02 21:57:00,
2013-05-02 18:02:00,51.8,42.3,30.15,NW,316,5.0,9.0,70,0.00,,---,0.00,VWS V14.01,2013-05-02 22:02:00,
2013-05-02 18:07:00,51.2,41.8,30.15,WNW,291,3.0,8.0,70,0.00,,---,0.00,VWS V14.01,2013-05-02 22:07:00,
2013-05-02 18:12:00,51.0,41.9,30.15,WNW,296,4.0,7.0,71,0.00,,---,0.00,VWS V14.01,2013-05-02 22:12:00,
2013-05-02 18:17:00,50.8,41.8,30.15,NNE,16,3.0,7.0,71,0.00,,---,0.00,VWS V14.01,2013-05-02 22:17:00,
2013-05-02 18:22:00,50.4,41.4,30.15,North,355,2.0,6.0,71,0.00,,---,0.00,VWS V14.01,2013-05-02 22:22:00,
2013-05-02 18:27:00,50.2,41.2,30.15,WNW,288,1.0,7.0,71,0.00,,---,0.00,VWS V14.01,2013-05-02 22:27:00,
2013-05-02 18:32:00,50.3,41.3,30.15,North,11,6.0,6.0,71,0.00,,---,0.00,VWS V14.01,2013-05-02 22:32:00,
2013-05-02 18:37:00,50.3,41.3,30.15,NW,311,3.0,6.0,71,0.00,,---,0.00,VWS V14.01,2013-05-02 22:37:00,
2013-05-02 18:42:00,49.9,41.2,30.15,WNW,294,2.0,6.0,72,0.00,,---,0.00,VWS V14.01,2013-05-02 22:42:00,
2013-05-02 18:47:00,49.4,41.1,30.15,North,355,3.0,6.0,73,0.00,,---,0.00,VWS V14.01,2013-05-02 22:47:00,
2013-05-02 18:52:00,49.4,41.5,30.15,NNW,334,0.0,4.0,74,0.00,,---,0.00,VWS V14.01,2013-05-02 22:52:00,
2013-05-02 18:57:00,49.2,41.3,30.15,WNW,288,1.0,6.0,74,0.00,,---,0.00,VWS V14.01,2013-05-02 22:57:00,
2013-05-02 19:02:00,49.1,41.5,30.14,North,11,2.0,13.0,75,0.00,,---,0.00,VWS V14.01,2013-05-02 23:02:00,
2013-05-02 19:07:00,48.8,41.2,30.14,North,360,3.0,5.0,75,0.00,,---,0.00,VWS V14.01,2013-05-02 23:07:00,
2013-05-02 19:12:00,48.4,41.2,30.14,North,351,4.0,10.0,76,0.00,,---,0.00,VWS V14.01,2013-05-02 23:12:00,
2013-05-02 19:17:00,47.8,40.6,30.14,North,9,9.0,9.0,76,0.00,,---,0.00,VWS V14.01,2013-05-02 23:17:00,
2013-05-02 19:23:00,47.0,40.2,30.14,NNE,19,12.0,12.0,77,0.00,,---,0.00,VWS V14.01,2013-05-02 23:23:00,
2013-05-02 19:28:00,46.8,40.3,30.15,NW,306,9.0,11.0,78,0.00,,---,0.00,VWS V14.01,2013-05-02 23:28:00,
2013-05-02 19:33:00,47.2,40.4,30.16,WNW,286,4.0,9.0,77,0.00,,---,0.00,VWS V14.01,2013-05-02 23:33:00,
2013-05-02 19:38:00,47.8,40.6,30.18,WSW,245,14.0,14.0,76,0.00,,---,0.00,VWS V14.01,2013-05-02 23:38:00,
2013-05-02 19:43:00,47.1,39.6,30.18,WNW,284,10.0,14.0,75,0.00,,---,0.00,VWS V14.01,2013-05-02 23:43:00,
2013-05-02 19:48:00,46.3,38.8,30.18,WNW,299,6.0,13.0,75,0.00,,---,0.00,VWS V14.01,2013-05-02 23:48:00,
2013-05-02 19:53:00,46.0,38.9,30.18,WSW,258,9.0,18.0,76,0.00,,---,0.00,VWS V14.01,2013-05-02 23:53:00,
2013-05-02 19:58:00,45.7,38.6,30.18,WNW,290,2.0,12.0,76,0.00,,---,0.00,VWS V14.01,2013-05-02 23:58:00,
2013-05-02 20:03:00,45.6,38.5,30.17,North,360,7.0,14.0,76,0.00,,---,0.00,VWS V14.01,2013-05-03 00:03:00,
2013-05-02 20:08:00,45.5,38.4,30.18,WNW,290,1.0,13.0,76,0.00,,---,0.00,VWS V14.01,2013-05-03 00:08:00,
2013-05-02 20:13:00,45.2,37.8,30.17,WNW,285,5.0,11.0,75,0.00,,---,0.00,VWS V14.01,2013-05-03 00:13:00,
2013-05-02 20:18:00,45.0,37.9,30.17,NNW,347,2.0,7.0,76,0.00,,---,0.00,VWS V14.01,2013-05-03 00:18:00,
2013-05-02 20:23:00,44.7,37.9,30.18,West,269,2.0,5.0,77,0.00,,---,0.00,VWS V14.01,2013-05-03 00:23:00,
2013-05-02 20:28:00,44.5,37.8,30.18,NW,322,1.0,7.0,77,0.00,,---,0.00,VWS V14.01,2013-05-03 00:28:00,
2013-05-02 20:33:00,44.0,37.6,30.19,SW,233,4.0,9.0,78,0.00,,---,0.00,VWS V14.01,2013-05-03 00:33:00,
2013-05-02 20:38:00,43.6,37.5,30.19,WNW,290,1.0,6.0,79,0.00,,---,0.00,VWS V14.01,2013-05-03 00:38:00,
2013-05-02 20:43:00,43.3,37.2,30.19,North,360,2.0,9.0,79,0.00,,---,0.00,VWS V14.01,2013-05-03 00:43:00,
2013-05-02 20:48:00,43.0,36.9,30.19,NW,321,1.0,10.0,79,0.00,,---,0.00,VWS V14.01,2013-05-03 00:48:00,
2013-05-02 20:53:00,42.6,37.2,30.19,North,360,7.0,7.0,81,0.00,,---,0.00,VWS V14.01,2013-05-03 00:53:00,
2013-05-02 20:58:00,42.3,36.9,30.19,West,275,4.0,14.0,81,0.00,,---,0.00,VWS V14.01,2013-05-03 00:58:00,
2013-05-02 21:03:00,42.1,37.0,30.19,NW,309,4.0,9.0,82,0.00,,---,0.00,VWS V14.01,2013-05-03 01:03:00,
2013-05-02 21:08:00,41.8,36.7,30.19,NW,315,2.0,10.0,82,0.00,,---,0.00,VWS V14.01,2013-05-03 01:08:00,
2013-05-02 21:13:00,41.4,36.6,30.19,North,351,4.0,7.0,83,0.00,,---,0.00,VWS V14.01,2013-05-03 01:13:00,
2013-05-02 21:18:00,41.0,36.5,30.19,NNW,336,4.0,7.0,84,0.00,,---,0.00,VWS V14.01,2013-05-03 01:18:00,
2013-05-02 21:23:00,40.8,36.3,30.19,North,5,9.0,9.0,84,0.00,,---,0.00,VWS V14.01,2013-05-03 01:23:00,
2013-05-02 21:28:00,40.6,36.5,30.19,NNE,17,8.0,13.0,85,0.00,,---,0.00,VWS V14.01,2013-05-03 01:28:00,
2013-05-02 21:33:00,40.4,36.3,30.19,North,360,4.0,10.0,85,0.00,,---,0.00,VWS V14.01,2013-05-03 01:33:00,
2013-05-02 21:38:00,40.2,36.1,30.19,North,355,3.0,12.0,85,0.00,,---,0.00,VWS V14.01,2013-05-03 01:38:00,
2013-05-02 21:43:00,40.1,36.0,30.20,North,355,3.0,11.0,85,0.00,,---,0.00,VWS V14.01,2013-05-03 01:43:00,
2013-05-02 21:48:00,39.9,35.8,30.19,NNW,342,3.0,6.0,85,0.00,,---,0.00,VWS V14.01,2013-05-03 01:48:00,
2013-05-02 21:53:00,39.7,35.6,30.19,North,9,4.0,13.0,85,0.00,,---,0.00,VWS V14.01,2013-05-03 01:53:00,
2013-05-02 21:58:00,39.5,35.4,30.20,North,5,9.0,10.0,85,0.00,,---,0.00,VWS V14.01,2013-05-03 01:58:00,
2013-05-02 22:03:00,39.3,35.2,30.19,NNE,14,5.0,12.0,85,0.00,,---,0.00,VWS V14.01,2013-05-03 02:03:00,
2013-05-02 22:08:00,39.2,35.4,30.20,North,360,7.0,7.0,86,0.00,,---,0.00,VWS V14.01,2013-05-03 02:08:00,
2013-05-02 22:13:00,39.1,35.3,30.19,North,360,1.0,6.0,86,0.00,,---,0.00,VWS V14.01,2013-05-03 02:13:00,
2013-05-02 22:18:00,38.9,35.1,30.19,North,355,3.0,15.0,86,0.00,,---,0.00,VWS V14.01,2013-05-03 02:18:00,
2013-05-02 22:24:00,38.8,35.0,30.19,North,355,2.0,11.0,86,0.00,,---,0.00,VWS V14.01,2013-05-03 02:24:00,
2013-05-02 22:29:00,38.7,35.2,30.19,NNW,348,4.0,9.0,87,0.00,,---,0.00,VWS V14.01,2013-05-03 02:29:00,
2013-05-02 22:34:00,38.5,34.7,30.19,North,360,5.0,13.0,86,0.00,,---,0.00,VWS V14.01,2013-05-03 02:34:00,
2013-05-02 22:39:00,38.4,34.9,30.19,NE,36,3.0,7.0,87,0.00,,---,0.00,VWS V14.01,2013-05-03 02:39:00,
2013-05-02 22:44:00,38.3,34.8,30.19,North,360,3.0,8.0,87,0.00,,---,0.00,VWS V14.01,2013-05-03 02:44:00,
2013-05-02 22:49:00,38.3,34.8,30.19,North,9,3.0,7.0,87,0.00,,---,0.00,VWS V14.01,2013-05-03 02:49:00,
2013-05-02 22:54:00,38.3,34.8,30.19,North,5,5.0,7.0,87,0.00,,---,0.00,VWS V14.01,2013-05-03 02:54:00,
2013-05-02 22:59:00,38.2,34.7,30.19,NNW,348,7.0,7.0,87,0.00,,---,0.00,VWS V14.01,2013-05-03 02:59:00,
2013-05-02 23:04:00,38.2,35.0,30.19,North,349,1.0,9.0,88,0.00,,---,0.00,VWS V14.01,2013-05-03 03:04:00,
2013-05-02 23:09:00,38.2,35.0,30.19,NNW,338,2.0,7.0,88,0.00,,---,0.00,VWS V14.01,2013-05-03 03:09:00,
2013-05-02 23:14:00,38.1,34.9,30.20,NNW,336,0.0,5.0,88,0.00,,---,0.00,VWS V14.01,2013-05-03 03:14:00,
2013-05-02 23:19:00,38.2,35.0,30.20,NW,313,1.0,10.0,88,0.00,,---,0.00,VWS V14.01,2013-05-03 03:19:00,
2013-05-02 23:24:00,38.2,35.0,30.19,NE,44,0.0,2.0,88,0.00,,---,0.00,VWS V14.01,2013-05-03 03:24:00,
2013-05-02 23:29:00,38.2,35.0,30.19,NNE,16,6.0,6.0,88,0.00,,---,0.00,VWS V14.01,2013-05-03 03:29:00,
2013-05-02 23:34:00,38.2,35.0,30.19,NNE,28,0.0,7.0,88,0.00,,---,0.00,VWS V14.01,2013-05-03 03:34:00,
2013-05-02 23:39:00,38.1,34.9,30.19,North,355,7.0,7.0,88,0.00,,---,0.00,VWS V14.01,2013-05-03 03:39:00,
2013-05-02 23:44:00,37.9,34.7,30.19,NNW,333,0.0,5.0,88,0.00,,---,0.00,VWS V14.01,2013-05-03 03:44:00,
2013-05-02 23:49:00,37.9,34.7,30.19,North,351,3.0,5.0,88,0.00,,---,0.00,VWS V14.01,2013-05-03 03:49:00,
2013-05-02 23:54:00,37.9,34.7,30.20,NNE,28,2.0,4.0,88,0.00,,---,0.00,VWS V14.01,2013-05-03 03:54:00,
2013-05-02 23:59:00,37.9,34.7,30.20,NW,317,4.0,10.0,88,0.00,,---,0.00,VWS V14.01,2013-05-03 03:59:00,